West Lafayette, IN

11:19 AM EST on January 16, 2017 (GMT -0500)
Purdue Univ

Weather History for KLAF - November, 2011

Change the Weather History Date:

Tuesday, November 8, 2011

  Actual Average Record
Temperature  
Mean Temperature 63 °F 46 °F  
Max Temperature 71 °F 55 °F 75 °F (1999)
Min Temperature 54 °F 37 °F 10 °F (1991)
Degree Days  
Heating Degree Days 2 19  
Month to date heating degree days 96 139  
Since 1 July heating degree days 510 573  
Cooling Degree Days 0 0  
Month to date cooling degree days 0 0  
Year to date cooling degree days 1246 982  
Growing Degree Days 12 (Base 50)    
Moisture  
Dew Point 53 °F    
Average Humidity 75    
Maximum Humidity 93    
Minimum Humidity 57    
Precipitation  
Precipitation 0.02 in 0.09 in 0.80 in (1950)
Month to date precipitation 0.63 0.73  
Year to date precipitation 36.29 31.83  
Sea Level Pressure  
Sea Level Pressure 30.00 in    
Wind  
Wind Speed 8 mph (South)    
Max Wind Speed 20 mph    
Max Gust Speed 28 mph    
Visibility 10 miles    
Events Rain    
T = Trace of Precipitation, MM = Missing Value Source: NWS Daily Summary

Daily Weather History Graph

Daily Weather History Graph

Search for Another Location

Airport or City:

Trip Planner

Search our weather history database for the weather conditions in past years. The results will help you decide how hot, cold, wet, or windy it might be!

Date:

Astronomy

Nov. 08, 2011 Rise Set
Actual Time 7:25 AM EST 5:37 PM EST
Civil Twilight 6:56 AM EST 6:05 PM EST
Nautical Twilight 6:24 AM EST 6:38 PM EST
Astronomical Twilight 5:52 AM EST 7:10 PM EST
Moon 4:16 PM EST (11/8) 5:23 AM EST (11/8)
Length of Visible Light 11h 09m
Length of Day
10h 11m
Waxing Gibbous, 96% of the Moon is Illuminated
Nov 8
Waxing Gibbous
Nov 10
Full
Nov 18
Last Quarter
Nov 25
New
Dec 2
First Quarter

Hourly Weather History & Observations

Time (EST) Temp. Dew Point Humidity Pressure Visibility Wind Dir Wind Speed Gust Speed Precip Events Conditions
12:54 AM 57.0 °F 55.0 °F 93% 30.12 in 7.0 mi ESE 5.8 mph - N/A   Overcast
1:54 AM 57.9 °F 54.0 °F 87% 30.11 in 10.0 mi South 4.6 mph - N/A   Overcast
2:54 AM 55.9 °F 52.0 °F 87% 30.09 in 10.0 mi SSE 5.8 mph - N/A   Partly Cloudy
5:54 AM 55.0 °F 50.0 °F 83% 30.07 in 10.0 mi SSE 6.9 mph - N/A   Clear
6:54 AM 55.0 °F 50.0 °F 83% 30.06 in 10.0 mi South 6.9 mph - N/A   Clear
7:54 AM 55.0 °F 50.0 °F 83% 30.05 in 10.0 mi South 10.4 mph - N/A   Clear
9:54 AM 60.1 °F 51.1 °F 72% 30.04 in 10.0 mi South 10.4 mph 17.3 mph N/A   Partly Cloudy
10:54 AM 61.0 °F 51.1 °F 70% 30.03 in 10.0 mi South 10.4 mph - N/A   Scattered Clouds
11:54 AM 63.0 °F 52.0 °F 67% 30.01 in 10.0 mi South 9.2 mph - N/A   Mostly Cloudy
12:54 PM 66.0 °F 53.1 °F 63% 29.97 in 10.0 mi South 10.4 mph 19.6 mph N/A   Overcast
1:54 PM 70.0 °F 53.1 °F 55% 29.94 in 10.0 mi South 13.8 mph 24.2 mph N/A   Partly Cloudy
3:54 PM 69.1 °F 54.0 °F 58% 29.96 in 10.0 mi SW 17.3 mph 24.2 mph N/A   Mostly Cloudy
4:54 PM 66.9 °F 54.0 °F 63% 29.96 in 10.0 mi SSW 10.4 mph - N/A   Overcast
5:54 PM 64.9 °F 55.0 °F 70% 29.98 in 10.0 mi SW 6.9 mph - N/A   Overcast
6:54 PM 62.1 °F 57.0 °F 84% 29.98 in 8.0 mi West 5.8 mph - 0.01 in Rain Light Rain
7:54 PM 61.0 °F 57.0 °F 87% 29.98 in 10.0 mi Calm Calm - 0.01 in   Overcast
8:54 PM 59.0 °F 57.0 °F 93% 29.95 in 7.0 mi Calm Calm - N/A   Overcast
9:54 PM 60.1 °F 57.0 °F 90% 29.94 in 10.0 mi SE 3.5 mph - N/A   Overcast
10:54 PM 63.0 °F 54.0 °F 72% 29.91 in 10.0 mi SSE 8.1 mph - N/A   Overcast
11:54 PM 64.0 °F 53.1 °F 67% 29.90 in 10.0 mi South 8.1 mph - N/A   Overcast